QPF
0.00 0.00 0.00 0.00 0.00 0.00 0.00 0.00 0.01 0.01 0.00 0.00 0.00 0.00 0.00 0.00 0.00 0.00 0.00 0.00 0.00 0.00 0.00 0.00 0.00 0.00 0.00 0.00 0.01 0.00 0.00 0.00 0.00 0.00 0.00 0.00 0.00 0.00 0.00 0.00 0.00 0.04 0.01
0.00 0.00 0.00 0.00 0.00 0.00 0.00 0.00 0.01 0.01 0.00 0.00 0.00 0.00 0.00 0.00 0.00 0.00 0.00 0.00 0.00 0.00 0.00 0.00 0.00 0.00 0.00 0.00 0.00 0.00 0.00 0.00 0.00 0.00 0.00 0.00 0.00 0.00 0.02 0.02 0.01 0.06 0.00
0.00 0.00 0.00 0.00 0.00 0.00 0.00 0.01 0.00 0.01 0.00 0.00 0.00 0.00 0.00 0.00 0.00 0.00 0.00 0.00 0.00 0.00 0.00 0.00 0.00 0.00 0.00 0.00 0.00 0.00 0.00 0.00 0.00 0.03 0.04 0.01 0.00 0.00 0.01 0.03 0.01 0.10 0.08
0.00 0.00 0.00 0.00 0.00 0.00 0.00 0.01 0.00 0.00 0.00 0.00 0.00 0.00 0.00 0.00 0.00 0.00 0.00 0.00 0.00 0.00 0.00 0.00 0.00 0.00 0.00 0.00 0.00 0.00 0.00 0.00 0.00 0.03 0.02 0.00 0.00 0.01 0.00 0.02 0.04 0.06 0.10
0.00 0.00 0.00 0.00 0.00 0.00 0.00 0.00 0.00 0.00 0.00 0.00 0.00 0.00 0.00 0.00 0.00 0.00 0.00 0.00 0.00 0.00 0.00 0.00 0.00 0.00 0.00 0.00 0.00 0.00 0.00 0.00 0.00 0.00 0.00 0.00 0.00 0.00 0.00 0.00 0.02 0.05 0.05
0.00 0.00 0.00 0.00 0.00 0.00 0.00 0.00 0.00 0.00 0.00 0.00 0.00 0.00 0.00 0.00 0.00 0.00 0.00 0.00 0.00 0.00 0.00 0.00 0.00 0.00 0.00 0.00 0.00 0.00 0.00 0.00 0.00 0.00 0.00 0.00 0.00 0.00 0.00 0.00 0.04 0.05 0.04
0.00 0.00 0.00 0.00 0.00 0.00 0.00 0.00 0.00 0.00 0.00 0.00 0.00 0.00 0.00 0.00 0.00 0.00 0.00 0.00 0.00 0.00 0.00 0.00 0.00 0.00 0.00 0.00 0.00 0.00 0.00 0.00 0.00 0.00 0.00 0.01 0.00 0.00 0.02 0.00 0.00 0.00 0.00
0.00 0.00 0.00 0.00 0.00 0.00 0.00 0.00 0.00 0.00 0.00 0.00 0.00 0.00 0.00 0.00 0.00 0.00 0.00 0.00 0.00 0.00 0.00 0.00 0.00 0.00 0.00 0.00 0.00 0.00 0.00 0.00 0.00 0.00 0.00 0.00 0.00 0.00 0.01 0.01 0.02 0.01 0.01
0.00 0.00 0.00 0.00 0.00 0.00 0.00 0.00 0.00 0.00 0.00 0.00 0.00 0.00 0.00 0.00 0.00 0.00 0.00 0.00 0.00 0.00 0.00 0.00 0.00 0.00 0.00 0.00 0.00 0.00 0.00 0.00 0.00 0.00 0.00 0.00 0.00 0.00 0.00 0.02 0.01 0.04 0.07
0.00 0.00 0.00 0.00 0.00 0.00 0.00 0.00 0.00 0.00 0.00 0.00 0.00 0.00 0.00 0.00 0.00 0.00 0.01 0.00 0.00 0.00 0.00 0.00 0.00 0.00 0.00 0.00 0.00 0.00 0.00 0.00 0.00 0.00 0.00 0.00 0.00 0.00 0.02 0.06 0.06 0.06 0.05
0.00 0.00 0.00 0.00 0.00 0.00 0.00 0.00 0.00 0.00 0.00 0.00 0.00 0.00 0.00 0.00 0.00 0.00 0.00 0.00 0.00 0.00 0.00 0.00 0.02 0.04 0.01 0.00 0.00 0.00 0.00 0.00 0.00 0.00 0.00 0.00 0.00 0.02 0.04 0.04 0.02 0.01 0.02
0.00 0.00 0.00 0.00 0.00 0.00 0.00 0.00 0.00 0.00 0.00 0.00 0.01 0.00 0.00 0.00 0.00 0.00 0.00 0.00 0.00 0.00 0.00 0.02 0.04 0.04 0.02 0.03 0.01 0.03 0.03 0.00 0.00 0.00 0.00 0.00 0.00 0.00 0.01 0.01 0.01 0.00 0.00
0.00 0.00 0.00 0.00 0.00 0.00 0.00 0.00 0.00 0.00 0.00 0.00 0.00 0.00 0.00 0.00 0.00 0.00 0.00 0.00 0.00 0.00 0.00 0.00 0.00 0.00 0.00 0.01 0.00 0.01 0.02 0.01 0.00 0.00 0.00 0.00 0.00 0.04 0.02 0.03 0.01 0.00 0.00
0.00 0.00 0.00 0.00 0.00 0.00 0.00 0.00 0.00 0.00 0.00 0.00 0.03 0.02 0.00 0.00 0.00 0.00 0.00 0.00 0.00 0.00 0.00 0.00 0.00 0.00 0.00 0.00 0.00 0.02 0.02 0.03 0.01 0.00 0.00 0.00 0.01 0.03 0.01 0.00 0.00 0.00 0.00
0.00 0.00 0.00 0.00 0.00 0.00 0.00 0.00 0.00 0.00 0.00 0.00 0.04 0.04 0.00 0.00 0.00 0.00 0.00 0.00 0.00 0.00 0.00 0.00 0.00 0.00 0.00 0.00 0.00 0.00 0.01 0.07 0.03 0.01 0.07 0.02 0.03 0.02 0.00 0.00 0.00 0.00 0.00
0.00 0.00 0.00 0.00 0.00 0.00 0.00 0.00 0.00 0.00 0.00 0.00 0.00 0.01 0.01 0.00 0.00 0.00 0.00 0.00 0.00 0.00 0.00 0.00 0.00 0.00 0.00 0.00 0.00 0.00 0.00 0.03 0.01 0.06 0.16 0.12 0.05 0.00 0.00 0.00 0.00 0.00 0.00
0.00 0.00 0.00 0.00 0.00 0.00 0.00 0.00 0.00 0.00 0.00 0.00 0.00 0.00 0.00 0.00 0.01 0.00 0.00 0.00 0.00 0.00 0.00 0.00 0.00 0.00 0.00 0.00 0.00 0.00 0.00 0.00 0.02 0.07 0.13 0.06 0.00 0.00 0.00 0.00 0.00 0.00 0.00
0.00 0.00 0.00 0.00 0.00 0.00 0.00 0.00 0.00 0.00 0.00 0.00 0.00 0.00 0.00 0.01 0.00 0.00 0.00 0.00 0.00 0.00 0.00 0.00 0.00 0.00 0.00 0.00 0.00 0.00 0.00 0.00 0.01 0.03 0.08 0.05 0.00 0.00 0.00 0.00 0.00 0.00 0.01
0.00 0.00 0.00 0.00 0.00 0.00 0.00 0.00 0.00 0.01 0.00 0.00 0.00 0.00 0.00 0.00 0.00 0.00 0.00 0.00 0.00 0.00 0.00 0.00 0.00 0.00 0.00 0.00 0.00 0.00 0.00 0.00 0.00 0.02 0.06 0.07 0.04 0.01 0.00 0.00 0.00 0.00 0.00
0.00 0.00 0.00 0.00 0.00 0.00 0.00 0.00 0.00 0.00 0.00 0.00 0.00 0.00 0.00 0.00 0.01 0.00 0.00 0.01 0.00 0.00 0.00 0.00 0.00 0.00 0.00 0.00 0.00 0.00 0.00 0.00 0.01 0.04 0.07 0.07 0.13 0.09 0.02 0.00 0.00 0.00 0.00
0.00 0.00 0.00 0.00 0.00 0.00 0.00 0.00 0.00 0.00 0.00 0.00 0.00 0.00 0.00 0.00 0.00 0.01 0.00 0.00 0.05 0.07 0.01 0.00 0.00 0.00 0.00 0.00 0.00 0.00 0.00 0.00 0.01 0.04 0.04 0.02 0.09 0.09 0.04 0.04 0.03 0.00 0.00
0.00 0.00 0.00 0.00 0.00 0.00 0.00 0.00 0.00 0.00 0.00 0.00 0.00 0.00 0.00 0.00 0.00 0.00 0.00 0.00 0.01 0.02 0.02 0.00 0.00 0.00 0.00 0.00 0.00 0.00 0.00 0.00 0.01 0.03 0.05 0.03 0.03 0.05 0.06 0.04 0.09 0.01 0.00
0.00 0.00 0.00 0.00 0.00 0.00 0.00 0.00 0.00 0.00 0.00 0.00 0.00 0.00 0.00 0.00 0.00 0.00 0.00 0.00 0.01 0.00 0.00 0.01 0.00 0.00 0.00 0.00 0.00 0.00 0.00 0.00 0.00 0.00 0.01 0.01 0.05 0.07 0.07 0.05 0.08 0.03 0.01
0.00 0.00 0.00 0.00 0.00 0.00 0.00 0.00 0.00 0.00 0.00 0.00 0.00 0.00 0.00 0.00 0.00 0.00 0.00 0.00 0.01 0.02 0.02 0.01 0.01 0.00 0.00 0.00 0.00 0.00 0.00 0.00 0.00 0.00 0.00 0.00 0.00 0.02 0.03 0.02 0.04 0.03 0.01
0.00 0.00 0.00 0.00 0.00 0.00 0.00 0.00 0.00 0.00 0.00 0.00 0.00 0.00 0.00 0.00 0.00 0.00 0.00 0.00 0.00 0.04 0.03 0.04 0.02 0.00 0.00 0.00 0.00 0.00 0.00 0.00 0.00 0.00 0.00 0.00 0.00 0.00 0.00 0.00 0.00 0.00 0.00
0.00 0.00 0.00 0.00 0.00 0.00 0.00 0.00 0.00 0.00 0.00 0.00 0.00 0.00 0.00 0.00 0.00 0.00 0.00 0.00 0.00 0.01 0.03 0.05 0.02 0.00 0.01 0.01 0.00 0.00 0.00 0.00 0.00 0.00 0.00 0.00 0.00 0.00 0.00 0.00 0.00 0.00 0.00
MSLP
1013.40 1013.26 1013.27 1013.38 1013.56 1013.65 1013.74 1013.82 1013.91 1014.00 1014.10 1014.18 1014.25 1014.41 1014.36 1014.42 1014.51 1014.63 1014.71 1014.77 1014.71 1014.62 1014.68 1014.74 1014.87 1014.94 1015.04 1015.04 1014.98 1015.08 1015.16 1015.12 1015.21 1015.21 1015.22 1015.29 1015.34 1015.37 1015.53 1015.64 1015.84 1016.06 1016.14
1012.89 1013.24 1013.41 1013.45 1013.67 1013.81 1013.91 1014.06 1014.08 1014.16 1014.25 1014.23 1014.34 1014.46 1014.50 1014.59 1014.64 1014.63 1014.65 1014.70 1014.74 1014.83 1014.84 1014.90 1014.94 1014.95 1015.12 1015.25 1015.35 1015.50 1015.66 1015.55 1015.41 1015.28 1015.29 1015.44 1015.61 1015.68 1015.67 1015.84 1015.99 1016.22 1016.36
1012.94 1013.20 1013.43 1013.68 1013.77 1013.81 1014.05 1014.12 1014.27 1014.24 1014.29 1014.27 1014.42 1014.49 1014.64 1014.68 1014.71 1014.81 1014.92 1014.94 1014.89 1014.90 1014.97 1015.04 1015.09 1015.19 1015.43 1015.48 1015.57 1015.64 1015.76 1015.81 1015.66 1015.58 1015.56 1015.71 1015.74 1015.72 1015.75 1015.97 1016.18 1016.22 1016.44
1012.89 1013.28 1013.68 1013.69 1013.81 1013.88 1014.05 1014.29 1014.26 1014.39 1014.48 1014.62 1014.69 1014.73 1014.92 1015.01 1015.05 1015.13 1015.22 1015.11 1014.92 1014.92 1015.09 1015.14 1015.15 1015.31 1015.53 1015.57 1015.70 1015.77 1015.83 1015.80 1015.80 1015.67 1015.83 1015.93 1015.92 1015.87 1015.85 1015.98 1016.07 1016.26 1016.49
1013.20 1013.45 1013.64 1013.74 1013.90 1014.05 1014.23 1014.29 1014.40 1014.64 1014.79 1014.94 1014.89 1014.87 1014.95 1015.09 1015.22 1015.32 1015.38 1015.31 1015.17 1015.12 1015.24 1015.29 1015.35 1015.44 1015.47 1015.46 1015.53 1015.56 1015.60 1015.74 1015.88 1015.94 1016.18 1016.18 1016.16 1016.00 1016.01 1016.16 1016.38 1016.42 1016.67
1013.44 1013.58 1013.69 1013.88 1014.00 1014.21 1014.31 1014.45 1014.65 1014.84 1014.89 1014.86 1014.79 1014.79 1014.88 1014.99 1015.05 1015.14 1015.19 1015.29 1015.35 1015.40 1015.52 1015.57 1015.53 1015.46 1015.51 1015.58 1015.65 1015.81 1015.98 1015.98 1016.05 1016.17 1016.18 1016.18 1016.34 1016.38 1016.30 1016.40 1016.66 1016.74 1016.78
1013.76 1013.89 1013.83 1013.95 1014.15 1014.38 1014.47 1014.71 1014.80 1014.81 1014.86 1014.80 1014.75 1014.78 1014.94 1015.05 1015.03 1015.04 1015.09 1015.21 1015.28 1015.31 1015.43 1015.51 1015.49 1015.42 1015.47 1015.59 1015.63 1015.72 1015.81 1015.82 1015.65 1015.87 1015.93 1016.14 1016.20 1016.12 1016.08 1016.20 1016.38 1016.55 1016.74
1013.92 1013.92 1013.93 1013.98 1014.32 1014.54 1014.77 1014.73 1014.75 1014.78 1014.74 1014.78 1014.91 1015.01 1015.06 1015.13 1015.18 1015.14 1015.09 1015.19 1015.23 1015.36 1015.36 1015.35 1015.43 1015.44 1015.42 1015.44 1015.44 1015.41 1015.46 1015.49 1015.39 1015.46 1015.72 1015.86 1015.97 1016.01 1016.14 1016.23 1016.37 1016.48 1016.65
1014.00 1014.00 1014.06 1014.22 1014.38 1014.66 1014.66 1014.67 1014.67 1014.64 1014.69 1014.80 1014.87 1014.92 1014.98 1014.95 1014.93 1015.03 1015.13 1015.18 1015.17 1015.11 1015.10 1015.22 1015.27 1015.25 1015.23 1015.20 1015.25 1015.30 1015.36 1015.25 1015.43 1015.58 1015.62 1015.65 1015.70 1015.86 1016.06 1016.15 1016.22 1016.52 1016.87
1014.35 1014.28 1014.40 1014.48 1014.61 1014.70 1014.67 1014.54 1014.53 1014.65 1014.68 1014.79 1014.79 1014.80 1014.71 1014.77 1014.77 1014.74 1014.72 1014.84 1014.85 1014.94 1014.93 1014.88 1014.99 1015.01 1014.95 1015.03 1014.96 1015.14 1015.23 1015.28 1015.40 1015.63 1015.71 1015.67 1015.55 1015.58 1015.78 1016.19 1016.30 1016.33 1016.39
1014.82 1014.85 1014.63 1014.72 1014.82 1014.75 1014.64 1014.52 1014.53 1014.61 1014.64 1014.64 1014.68 1014.65 1014.62 1014.75 1014.79 1014.63 1014.48 1014.46 1014.45 1014.60 1014.58 1014.60 1014.60 1014.70 1014.75 1014.82 1014.96 1015.16 1015.35 1015.34 1015.32 1015.38 1015.34 1015.27 1015.37 1015.48 1015.45 1015.65 1015.93 1016.16 1016.13
1014.97 1014.89 1014.91 1014.81 1014.78 1014.64 1014.35 1014.41 1014.63 1014.68 1014.68 1014.65 1014.79 1014.69 1014.82 1014.67 1014.62 1014.53 1014.45 1014.34 1014.26 1014.21 1014.30 1014.44 1014.43 1014.44 1014.69 1014.98 1014.98 1014.99 1014.78 1014.66 1014.87 1014.79 1015.08 1015.07 1015.09 1015.17 1015.39 1015.70 1015.88 1016.09 1016.19
1014.46 1014.73 1014.72 1014.85 1014.71 1014.53 1014.37 1014.39 1014.64 1014.59 1014.72 1014.82 1014.79 1014.88 1014.77 1014.58 1014.32 1014.65 1014.77 1014.48 1014.49 1014.53 1014.55 1014.43 1014.43 1014.56 1014.62 1014.69 1014.71 1014.72 1014.57 1014.70 1014.85 1014.79 1014.75 1014.67 1014.69 1014.78 1015.04 1015.39 1015.58 1015.59 1015.87
1014.35 1014.36 1014.49 1014.66 1014.68 1014.44 1014.31 1014.40 1014.43 1014.46 1014.65 1014.67 1014.70 1014.66 1014.64 1014.65 1014.36 1014.49 1014.65 1014.70 1014.57 1014.52 1014.43 1014.41 1014.25 1014.05 1014.14 1014.19 1014.41 1014.75 1014.88 1014.96 1014.72 1014.62 1014.76 1014.97 1014.95 1014.85 1014.92 1015.12 1015.42 1015.69 1015.82
1014.21 1014.23 1014.20 1014.43 1014.58 1014.35 1014.36 1014.31 1014.34 1014.28 1014.33 1014.32 1014.56 1014.59 1014.52 1014.52 1014.39 1014.05 1014.30 1014.60 1014.43 1014.12 1014.06 1013.98 1013.84 1013.79 1013.88 1014.05 1014.03 1014.01 1014.06 1014.38 1014.60 1014.61 1014.77 1014.67 1014.99 1015.17 1015.20 1015.42 1015.39 1015.52 1015.69
1013.91 1014.08 1014.11 1014.28 1014.17 1014.12 1014.34 1014.32 1014.27 1014.07 1014.03 1014.03 1014.36 1014.39 1014.20 1014.13 1014.00 1014.05 1013.99 1013.87 1013.73 1013.75 1013.83 1013.66 1013.66 1013.74 1013.75 1013.60 1013.73 1013.31 1013.38 1013.76 1013.90 1014.11 1014.26 1014.65 1014.87 1015.09 1015.33 1015.32 1015.46 1015.53 1015.67
1013.49 1013.71 1014.00 1014.12 1014.09 1014.10 1014.30 1014.31 1014.09 1014.14 1013.95 1013.85 1014.09 1014.01 1014.11 1014.06 1014.35 1013.85 1013.84 1013.81 1013.72 1013.64 1013.36 1013.23 1013.41 1013.45 1013.68 1013.51 1013.21 1013.15 1012.93 1012.85 1013.22 1013.77 1013.89 1014.01 1014.34 1014.78 1015.17 1015.23 1015.39 1015.65 1015.79
1013.31 1013.63 1013.83 1013.98 1014.00 1013.93 1014.02 1014.05 1014.06 1014.15 1013.98 1013.86 1014.04 1013.78 1013.85 1014.10 1014.31 1014.08 1014.01 1014.09 1013.96 1013.58 1013.44 1013.73 1013.75 1013.73 1013.83 1013.75 1013.24 1012.85 1012.92 1012.88 1013.06 1013.47 1013.84 1014.26 1014.31 1014.65 1014.97 1015.19 1015.39 1015.59 1015.77
1012.80 1013.26 1013.61 1013.71 1013.75 1013.72 1013.87 1013.93 1014.05 1013.92 1013.71 1013.66 1013.48 1013.77 1013.72 1013.70 1013.86 1014.04 1014.00 1013.93 1013.77 1013.65 1013.77 1013.92 1013.90 1014.05 1014.03 1013.83 1013.42 1013.04 1012.99 1013.22 1013.49 1013.69 1013.80 1014.36 1014.54 1014.57 1014.87 1015.19 1015.44 1015.68 1015.67
1012.60 1012.92 1013.22 1013.44 1013.52 1013.65 1013.98 1014.18 1014.08 1014.04 1013.81 1013.46 1013.30 1013.28 1013.61 1013.73 1013.78 1014.06 1014.21 1013.78 1013.69 1013.87 1014.11 1014.31 1014.35 1014.07 1014.09 1014.23 1013.60 1013.58 1013.29 1013.44 1013.59 1013.83 1014.07 1014.43 1014.78 1014.93 1015.29 1015.45 1015.69 1015.75 1015.78
1012.59 1012.88 1013.05 1013.36 1013.47 1013.80 1014.14 1014.37 1014.30 1014.06 1013.74 1013.54 1013.24 1013.16 1013.22 1013.59 1013.72 1013.94 1013.80 1013.87 1013.81 1014.20 1014.42 1014.27 1014.21 1014.21 1014.02 1014.05 1014.22 1014.05 1014.02 1013.98 1014.17 1014.23 1014.69 1014.95 1014.88 1015.25 1015.88 1015.79 1015.85 1016.00 1015.93
1011.93 1012.51 1012.80 1012.90 1013.16 1013.48 1013.81 1013.82 1013.82 1013.86 1013.64 1013.52 1013.27 1013.19 1013.29 1013.47 1013.54 1013.56 1013.78 1013.94 1014.02 1014.22 1014.34 1014.23 1014.19 1014.21 1014.04 1013.80 1014.32 1014.53 1014.53 1014.45 1014.59 1014.61 1014.66 1015.10 1015.27 1015.54 1015.82 1015.78 1015.81 1015.67 1016.07
1011.67 1011.83 1012.15 1012.51 1012.79 1013.16 1013.53 1013.71 1013.82 1013.83 1013.78 1013.67 1013.55 1013.44 1013.29 1013.22 1013.53 1013.55 1013.64 1013.92 1014.10 1014.21 1014.32 1014.26 1014.20 1014.15 1014.08 1014.13 1014.07 1014.23 1014.76 1014.92 1015.06 1014.97 1014.81 1014.86 1015.09 1015.18 1015.16 1015.41 1015.72 1015.77 1016.00
1010.97 1011.32 1011.72 1011.99 1012.30 1012.72 1013.14 1013.56 1013.73 1013.92 1014.12 1013.87 1013.80 1013.57 1013.30 1013.03 1013.38 1013.57 1013.53 1013.59 1013.85 1014.04 1014.08 1013.93 1013.98 1013.96 1014.21 1014.41 1014.50 1014.24 1014.24 1014.55 1015.16 1015.09 1014.91 1014.94 1015.32 1015.38 1015.51 1015.60 1015.68 1015.82 1015.95
1010.52 1010.96 1011.33 1011.71 1011.92 1012.23 1012.72 1013.05 1013.44 1013.75 1013.90 1013.86 1013.75 1013.68 1013.44 1013.36 1013.20 1013.23 1013.21 1013.25 1013.52 1013.73 1013.82 1014.03 1013.95 1013.93 1013.97 1013.99 1014.19 1014.69 1014.85 1014.73 1014.85 1015.25 1015.41 1015.44 1015.37 1015.52 1015.65 1015.71 1015.65 1015.81 1015.94
1010.27 1010.72 1011.16 1011.56 1011.81 1012.03 1012.43 1012.83 1013.24 1013.54 1013.75 1013.97 1013.94 1013.88 1013.65 1013.43 1013.20 1013.07 1012.83 1012.86 1012.97 1013.31 1013.50 1013.64 1013.71 1013.63 1013.67 1013.64 1013.77 1014.07 1014.23 1014.56 1014.83 1015.10 1015.46 1015.27 1015.64 1015.58 1015.64 1015.71 1015.81 1015.93 1016.06
Thickness
5761 5763 5763 5764 5765 5765 5765 5765 5766 5765 5764 5765 5763 5762 5762 5761 5760 5758 5757 5756 5757 5758 5757 5754 5751 5749 5749 5750 5752 5752 5751 5751 5750 5750 5749 5749 5749 5748 5746 5746 5744 5741 5741
5768 5765 5765 5766 5767 5766 5767 5766 5767 5766 5766 5766 5766 5764 5762 5761 5760 5760 5760 5759 5759 5758 5758 5756 5754 5753 5752 5751 5751 5749 5747 5748 5749 5750 5751 5749 5747 5746 5745 5743 5743 5741 5740
5770 5767 5767 5768 5769 5768 5768 5769 5769 5769 5769 5770 5768 5765 5763 5762 5762 5761 5760 5760 5760 5759 5758 5758 5756 5754 5752 5751 5750 5749 5747 5746 5748 5751 5751 5750 5749 5747 5745 5744 5742 5741 5739
5773 5771 5769 5771 5770 5772 5772 5770 5772 5771 5770 5768 5766 5765 5763 5761 5760 5759 5758 5760 5762 5761 5759 5758 5757 5754 5751 5751 5750 5750 5749 5749 5750 5752 5752 5750 5749 5749 5749 5747 5746 5744 5741
5774 5773 5773 5774 5773 5773 5772 5773 5773 5771 5768 5767 5767 5768 5767 5765 5763 5761 5760 5760 5760 5760 5759 5758 5756 5754 5754 5755 5753 5753 5754 5752 5751 5750 5749 5749 5749 5748 5747 5745 5743 5742 5740
5776 5776 5776 5775 5774 5773 5775 5774 5774 5772 5771 5772 5772 5772 5770 5769 5768 5766 5764 5764 5763 5761 5759 5758 5758 5758 5757 5755 5755 5754 5752 5752 5750 5750 5751 5751 5749 5747 5745 5742 5741 5740 5739
5777 5776 5777 5776 5775 5776 5776 5774 5775 5775 5775 5776 5776 5776 5773 5770 5769 5769 5769 5768 5767 5765 5762 5760 5760 5761 5759 5757 5756 5756 5756 5756 5758 5756 5755 5752 5750 5750 5749 5747 5744 5741 5739
5778 5778 5779 5780 5779 5778 5776 5778 5779 5780 5781 5780 5777 5775 5772 5770 5769 5769 5770 5768 5768 5766 5765 5764 5762 5761 5761 5761 5760 5761 5759 5759 5760 5760 5756 5754 5752 5749 5747 5745 5743 5741 5738
5780 5781 5783 5784 5783 5780 5782 5783 5784 5784 5783 5780 5780 5779 5777 5776 5776 5774 5771 5769 5769 5770 5770 5768 5766 5765 5765 5766 5764 5764 5762 5762 5759 5758 5757 5756 5754 5750 5747 5745 5744 5739 5736
5783 5784 5786 5785 5783 5784 5786 5787 5788 5787 5785 5785 5783 5782 5782 5780 5780 5780 5780 5777 5775 5774 5774 5774 5772 5771 5771 5770 5770 5768 5766 5763 5761 5758 5756 5756 5754 5752 5747 5744 5743 5742 5740
5782 5784 5787 5786 5785 5788 5790 5792 5792 5789 5789 5787 5786 5785 5784 5783 5782 5783 5785 5784 5783 5779 5778 5777 5777 5776 5775 5773 5769 5767 5763 5763 5763 5761 5759 5757 5755 5752 5751 5748 5744 5741 5740
5781 5786 5788 5789 5789 5792 5794 5796 5794 5792 5791 5790 5788 5788 5784 5786 5786 5785 5786 5787 5787 5786 5783 5781 5780 5779 5775 5772 5771 5768 5771 5771 5767 5766 5762 5759 5755 5752 5749 5744 5741 5738 5737
5790 5790 5792 5790 5791 5795 5797 5798 5795 5795 5792 5790 5791 5788 5787 5789 5792 5788 5786 5788 5787 5785 5785 5784 5782 5779 5777 5774 5773 5772 5772 5768 5764 5763 5761 5760 5756 5753 5749 5744 5741 5740 5735
5791 5795 5796 5794 5794 5798 5800 5799 5799 5798 5794 5793 5793 5793 5791 5791 5793 5791 5791 5789 5787 5788 5788 5787 5786 5787 5783 5781 5776 5768 5765 5763 5761 5759 5755 5751 5748 5748 5745 5742 5737 5733 5731
5793 5796 5798 5798 5798 5800 5801 5801 5802 5801 5799 5798 5796 5794 5794 5794 5795 5798 5795 5790 5791 5794 5793 5790 5790 5788 5786 5781 5779 5777 5773 5767 5761 5757 5751 5748 5743 5739 5737 5733 5732 5729 5726
5799 5798 5801 5800 5802 5803 5802 5802 5804 5803 5802 5802 5800 5796 5797 5798 5798 5798 5798 5796 5797 5797 5795 5795 5792 5791 5788 5785 5783 5782 5778 5770 5766 5759 5755 5745 5740 5736 5731 5729 5726 5723 5720
5802 5802 5802 5802 5803 5805 5804 5803 5803 5802 5803 5805 5802 5801 5798 5799 5798 5799 5799 5799 5798 5798 5798 5798 5795 5792 5789 5787 5788 5786 5782 5779 5771 5761 5756 5750 5743 5736 5730 5727 5723 5719 5714
5806 5804 5804 5806 5806 5808 5808 5805 5805 5804 5805 5805 5803 5804 5802 5800 5798 5797 5798 5798 5796 5798 5798 5796 5793 5790 5786 5785 5788 5787 5782 5776 5770 5761 5753 5744 5741 5735 5730 5723 5718 5714 5708
5811 5809 5806 5808 5809 5810 5810 5807 5806 5807 5809 5808 5808 5806 5805 5804 5801 5799 5799 5797 5797 5798 5797 5793 5791 5788 5785 5785 5783 5784 5780 5769 5763 5756 5750 5741 5735 5732 5728 5720 5713 5705 5701
5815 5813 5811 5811 5812 5812 5810 5808 5808 5807 5809 5811 5811 5810 5805 5804 5803 5799 5797 5798 5796 5795 5791 5786 5783 5784 5780 5776 5780 5777 5775 5767 5759 5751 5747 5740 5731 5726 5721 5714 5705 5700 5693
5814 5813 5813 5811 5812 5810 5807 5804 5804 5805 5808 5810 5810 5810 5809 5805 5803 5799 5799 5797 5794 5788 5784 5785 5783 5778 5777 5776 5770 5767 5764 5757 5748 5746 5740 5736 5730 5722 5712 5706 5700 5692 5687
5818 5815 5814 5815 5813 5812 5809 5809 5809 5807 5808 5809 5810 5810 5808 5806 5803 5802 5798 5794 5793 5788 5784 5783 5780 5775 5776 5777 5765 5758 5749 5749 5744 5741 5739 5732 5724 5716 5708 5703 5696 5692 5682
5819 5819 5818 5818 5816 5813 5811 5810 5808 5807 5807 5806 5806 5806 5808 5807 5802 5799 5796 5792 5789 5788 5784 5783 5781 5778 5774 5772 5769 5760 5744 5739 5737 5739 5734 5730 5723 5715 5710 5703 5694 5687 5679
5824 5823 5822 5822 5819 5816 5812 5809 5807 5802 5799 5804 5803 5806 5807 5808 5802 5799 5797 5794 5792 5790 5786 5785 5782 5780 5774 5764 5762 5763 5758 5750 5735 5730 5732 5725 5716 5709 5702 5698 5690 5682 5673
5828 5825 5823 5821 5821 5819 5814 5812 5808 5803 5803 5804 5804 5803 5805 5805 5803 5801 5800 5798 5796 5792 5789 5783 5781 5779 5776 5768 5762 5753 5748 5746 5740 5727 5717 5713 5709 5703 5698 5690 5685 5675 5666
5828 5826 5824 5820 5819 5819 5816 5812 5808 5805 5803 5800 5800 5800 5801 5802 5804 5803 5802 5800 5798 5795 5790 5786 5782 5779 5775 5772 5766 5758 5749 5740 5733 5726 5716 5711 5703 5699 5694 5686 5678 5668 5657